Miscellaneous Local Product
Issued by NWS Hastings, NE

Home | Current Version | Previous Version | Graphics & Text | Print | Product List | Glossary On
Versions: 1 2 3 4 5 6 7 8 9 10 11 12 13 14 15 16 17 18 19 20 21 22 23 24 25 26 27 28 29 30 31 32 33 34 35 36 37 38 39 40 41 42 43 44 45 46 47 48 49 50
000
AXUS43 KGID 201002
MISGRI

GID CWA HOURLY WEATHER ROUNDUP
NATIONAL WEATHER SERVICE HASTINGS NE
500 AM CDT FRI APR 20 2018

NOTE: "FAIR" INDICATES FEW OR NO CLOUDS BELOW 12,000 FEET WITH NO
SIGNIFICANT WEATHER AND/OR OBSTRUCTIONS TO VISIBILITY.

...SOUTH CENTRAL NEBRASKA...

CITY           SKY/WX    TMP DP  RH WIND       PRES   REMARKS
GRAND ISLAND   CLOUDY    39  27  62 SE9       30.33S WCI  33
KEARNEY        PTCLDY    37  28  70 SE7       30.31S WCI  32
HASTINGS       CLOUDY    38  26  62 SE6       30.33R WCI  33
ORD            FAIR      34  28  79 CALM      30.31R
YORK             N/A     37  28  70 SE9       30.35S WCI  31
AURORA         CLOUDY    33  26  76 SE6       30.34S WCI  27
LEXINGTON      FAIR      39  29  65 SE7       30.28S WCI  34
HOLDREGE       CLOUDY    37  29  71 SE9       30.28F WCI  31
HEBRON         PTCLDY    37  28  72 SE5       30.36S WCI  33

...NEBRASKA PANHANDLE...

CITY           SKY/WX    TMP DP  RH WIND       PRES   REMARKS
CHADRON        FAIR      44  27  51 SE12G25   30.10F
ALLIANCE       FAIR      41  28  60 SE26G36   30.09F
SCOTTSBLUFF    FAIR      40  28  62 E18       30.07R WCI  31
SIDNEY         FAIR      38  26  62 SE23G32   30.07S WCI  27

...WESTERN AND NORTH CENTRAL NEBRASKA...

CITY           SKY/WX    TMP DP  RH WIND       PRES   REMARKS
VALENTINE      FAIR      36  27  69 NE8       30.24F WCI  30
AINSWORTH      FAIR      37  29  73 SE9       30.26F WCI  30
ONEILL         FAIR      38  32  79 SE8       30.33S WCI  32
BROKEN BOW     FAIR      36  27  69 SE8       30.27F WCI  30
IMPERIAL       FAIR      38  28  67 E16       30.16F WCI  29
NORTH PLATTE   FAIR      39  29  67 SE10      30.23F WCI  32
MCCOOK         FAIR      41  27  57 SE10      30.22F

...EASTERN NEBRASKA...

CITY           SKY/WX    TMP DP  RH WIND       PRES   REMARKS
NORFOLK        CLOUDY    32  29  88 SE7       30.36R WCI  26
SO SIOUX CITY  PTCLDY    31  24  75 E9        30.42S WCI  23
TEKAMAH        PTCLDY    28  26  92 CALM      30.42S
COLUMBUS       CLOUDY    32  28  85 E7        30.38R WCI  26
ALBION         MOCLDY    35  30  82 SE5       30.35S WCI  31
OMAHA EPPLEY   PTCLDY    37  26  64 SE6       30.42F WCI  32
OFFUTT AFB     CLOUDY    30  25  80 E7        30.40F WCI  24
MILLARD        CLOUDY    39  28  64 CALM      30.41F
LINCOLN        CLOUDY    36  27  69 CALM      30.40R
NEBRASKA CITY  PTCLDY    36  28  73 E5        30.40F WCI  32
BEATRICE       PTCLDY    40  30  67 SE5       30.39S
FALLS CITY     CLOUDY    34  26  72 E5        30.40F WCI  30

...NORTHERN KANSAS...

CITY           SKY/WX    TMP DP  RH WIND       PRES   REMARKS
GOODLAND       FAIR      40  28  62 SE25G33   30.13F WCI  29
HILL CITY      CLOUDY    36  27  69 E6        30.27F WCI  31
NORTON         SUNNY     41  28  60 SE12      30.26S
PHILLIPSBURG   CLEAR     41  28  60 SE8       30.31S
SMITH CENTER   CLEAR     39  28  65 SE10      30.32S WCI  32
BELOIT         CLEAR     36  25  64 CALM      30.34S
HAYS           CLOUDY    43  28  55 SE13      30.29F
RUSSELL        CLOUDY    42  30  62 SE9       30.29S
CONCORDIA      CLOUDY    35  27  72 SE8       30.34F WCI  29
SALINA         MOCLDY    41  31  67 SE7       30.35S
TOPEKA         CLOUDY    36  30  79 E5        30.39F WCI  32



USA.gov is the U.S. government's official web portal to all federal, state and local government web resources and services.